User: anonymous   Login
Location: Bats
(43.6587°N, 0.4584°W)
Time: 13:01:35
(UTC+00:00)
Language:

BREEZE-M DEB (TANK) - Orbit

View from above orbital plane
View from above orbital plane
View from above satellite
View from above satellite

Ground track
Ground track

The orbit is defined by the following mean orbital elements,

1 27646U          26066.03175514 +.00000000 +00000-0 +31254-3 0 00002
2 27646  49.5192 269.5245 5411389 123.6493 303.6649  4.61717262    06
Epoch (UTC): 07 March 2026 00:45:43
Eccentricity: 0.5411389
inclination: 49.5192°
perigee height: 612 km
apogee height: 17100 km
right ascension of ascending node: 269.5245°
argument of perigee: 123.6493°
revolutions per day: 4.61717262
mean anomaly at epoch: 303.6649°

The dashed part of the orbit path shows where the satellite is in the earth's shadow,  

DLR